{"data":{"norad_id":57785,"epoch":"2026-09-20T10:58:46.881120Z","epoch_age_seconds":152139,"freshness":"FRESH","line1":"1 57785U 23134Q   26263.45748705 -.00000221  00000+0  14879-5 0  9993","line2":"2 57785  43.0004 174.4805 0001170 263.9989  96.0729 15.27581879169292","mean_motion":15.27581879,"eccentricity":0.000117,"inclination_deg":43.0004,"raan_deg":174.4805,"arg_perigee_deg":263.9989,"mean_anomaly_deg":96.0729,"bstar":1.4879e-6,"rev_number":16929,"period_min":94.266632760966,"perigee_km":482.24071152851,"apogee_km":483.8462277584,"semimajor_km":6861.1804696435,"source":"CELESTRAK","updated_at":"2026-09-21T09:00:33.704988Z"}}